Time,TemperatureF,DewpointF,PressureIn,WindDirection,WindDirectionDegrees,WindSpeedMPH,WindSpeedGustMPH,Humidity,HourlyPrecipIn,Conditions,Clouds,dailyrainin,SoftwareType,DateUTC
2013-09-14 00:05:00,49.6,49.0,30.00,NE,41,0.0,5.0,96,0.07,,,0.00,weatherlink.com 1.10,2013-09-14 04:05:00,
2013-09-14 00:20:00,49.4,48.0,30.00,NNW,327,0.0,5.0,95,0.02,,,0.00,weatherlink.com 1.10,2013-09-14 04:20:00,
2013-09-14 00:35:00,49.1,48.0,30.00,NNW,328,1.0,3.0,95,0.00,,,0.00,weatherlink.com 1.10,2013-09-14 04:35:00,
2013-09-14 00:50:00,48.8,48.0,30.00,WNW,302,0.0,4.0,95,0.00,,,0.00,weatherlink.com 1.10,2013-09-14 04:50:00,
2013-09-14 01:05:00,48.7,47.0,30.00,WNW,290,1.0,4.0,95,0.00,,,0.00,weatherlink.com 1.10,2013-09-14 05:05:00,
2013-09-14 01:20:00,48.6,47.0,30.00,WNW,285,0.0,3.0,95,0.00,,,0.00,weatherlink.com 1.10,2013-09-14 05:20:00,
2013-09-14 01:35:00,48.4,47.0,30.00,NW,312,0.0,2.0,95,0.00,,,0.00,weatherlink.com 1.10,2013-09-14 05:35:00,
2013-09-14 01:50:00,48.1,47.0,30.01,SW,234,0.0,3.0,95,0.00,,,0.00,weatherlink.com 1.10,2013-09-14 05:50:00,
2013-09-14 02:05:00,48.1,47.0,30.00,SW,234,1.0,2.0,95,0.00,,,0.00,weatherlink.com 1.10,2013-09-14 06:05:00,
2013-09-14 02:20:00,48.1,47.0,30.01,WNW,291,1.0,4.0,95,0.00,,,0.00,weatherlink.com 1.10,2013-09-14 06:20:00,
2013-09-14 02:35:00,48.0,47.0,30.01,SW,236,0.0,3.0,95,0.00,,,0.00,weatherlink.com 1.10,2013-09-14 06:35:00,
2013-09-14 02:50:00,48.1,47.0,30.01,SW,221,0.0,4.0,95,0.00,,,0.00,weatherlink.com 1.10,2013-09-14 06:50:00,
2013-09-14 03:05:00,48.1,47.0,30.02,WSW,250,2.0,4.0,95,0.00,,,0.00,weatherlink.com 1.10,2013-09-14 07:05:00,
2013-09-14 03:20:00,48.1,47.0,30.02,WSW,250,0.0,3.0,95,0.00,,,0.00,weatherlink.com 1.10,2013-09-14 07:20:00,
2013-09-14 03:35:00,48.0,46.0,30.01,WNW,291,0.0,4.0,94,0.00,,,0.00,weatherlink.com 1.10,2013-09-14 07:35:00,
2013-09-14 03:50:00,48.1,47.0,30.02,WNW,291,0.0,4.0,94,0.00,,,0.00,weatherlink.com 1.10,2013-09-14 07:50:00,
2013-09-14 04:05:00,48.3,47.0,30.02,WNW,294,1.0,2.0,94,0.00,,,0.00,weatherlink.com 1.10,2013-09-14 08:05:00,
2013-09-14 04:20:00,48.2,47.0,30.03,WNW,287,3.0,4.0,94,0.00,,,0.00,weatherlink.com 1.10,2013-09-14 08:20:00,
2013-09-14 04:35:00,48.3,47.0,30.03,West,272,0.0,3.0,94,0.00,,,0.00,weatherlink.com 1.10,2013-09-14 08:35:00,
2013-09-14 04:50:00,48.2,47.0,30.03,WNW,287,1.0,4.0,94,0.00,,,0.00,weatherlink.com 1.10,2013-09-14 08:50:00,
2013-09-14 05:05:00,48.2,47.0,30.03,West,261,2.0,3.0,94,0.00,,,0.00,weatherlink.com 1.10,2013-09-14 09:05:00,
2013-09-14 05:20:00,48.2,46.0,30.03,West,271,2.0,4.0,93,0.00,,,0.00,weatherlink.com 1.10,2013-09-14 09:20:00,
2013-09-14 05:35:00,48.1,46.0,30.04,West,281,1.0,3.0,92,0.00,,,0.00,weatherlink.com 1.10,2013-09-14 09:35:00,
2013-09-14 05:50:00,48.1,46.0,30.04,WNW,288,3.0,3.0,91,0.00,,,0.00,weatherlink.com 1.10,2013-09-14 09:50:00,
2013-09-14 06:05:00,48.0,45.0,30.04,WNW,300,3.0,6.0,90,0.00,,,0.00,weatherlink.com 1.10,2013-09-14 10:05:00,
2013-09-14 06:20:00,48.0,45.0,30.04,WNW,287,1.0,5.0,90,0.00,,,0.00,weatherlink.com 1.10,2013-09-14 10:20:00,
2013-09-14 06:35:00,47.9,45.0,30.04,WNW,287,0.0,3.0,90,0.00,,,0.00,weatherlink.com 1.10,2013-09-14 10:35:00,
2013-09-14 06:51:00,47.9,45.0,30.05,WNW,283,2.0,5.0,89,0.00,,,0.00,weatherlink.com 1.10,2013-09-14 10:51:00,
2013-09-14 07:06:00,47.8,45.0,30.06,West,269,2.0,6.0,89,0.00,,,0.00,weatherlink.com 1.10,2013-09-14 11:06:00,
2013-09-14 07:21:00,47.9,45.0,30.06,West,259,0.0,5.0,88,0.00,,,0.00,weatherlink.com 1.10,2013-09-14 11:21:00,
2013-09-14 07:36:00,47.9,44.0,30.07,West,271,0.0,3.0,87,0.00,,,0.00,weatherlink.com 1.10,2013-09-14 11:36:00,
2013-09-14 07:51:00,47.9,44.0,30.08,West,275,1.0,6.0,86,0.00,,,0.00,weatherlink.com 1.10,2013-09-14 11:51:00,
2013-09-14 08:06:00,48.3,44.0,30.08,WNW,296,2.0,4.0,84,0.00,,,0.00,weatherlink.com 1.10,2013-09-14 12:06:00,
2013-09-14 08:21:00,48.5,44.0,30.09,WNW,298,1.0,4.0,85,0.00,,,0.00,weatherlink.com 1.10,2013-09-14 12:21:00,
2013-09-14 08:36:00,48.7,44.0,30.09,WNW,298,0.0,4.0,85,0.00,,,0.00,weatherlink.com 1.10,2013-09-14 12:36:00,
2013-09-14 08:51:00,48.9,44.0,30.10,NW,304,0.0,4.0,84,0.00,,,0.00,weatherlink.com 1.10,2013-09-14 12:51:00,
2013-09-14 09:06:00,49.0,44.0,30.10,WNW,301,3.0,7.0,84,0.00,,,0.00,weatherlink.com 1.10,2013-09-14 13:06:00,
2013-09-14 09:21:00,49.2,44.0,30.11,WNW,291,0.0,5.0,83,0.00,,,0.00,weatherlink.com 1.10,2013-09-14 13:21:00,
2013-09-14 09:36:00,49.6,44.0,30.11,WNW,287,3.0,6.0,82,0.00,,,0.00,weatherlink.com 1.10,2013-09-14 13:36:00,
2013-09-14 09:51:00,49.8,44.0,30.12,WNW,300,1.0,7.0,80,0.00,,,0.00,weatherlink.com 1.10,2013-09-14 13:51:00,
2013-09-14 10:06:00,50.0,44.0,30.11,WNW,295,3.0,6.0,79,0.00,,,0.00,weatherlink.com 1.10,2013-09-14 14:06:00,
2013-09-14 10:21:00,50.5,44.0,30.11,WNW,299,2.0,5.0,79,0.00,,,0.00,weatherlink.com 1.10,2013-09-14 14:21:00,
2013-09-14 10:36:00,50.8,44.0,30.11,WNW,298,1.0,8.0,78,0.00,,,0.00,weatherlink.com 1.10,2013-09-14 14:36:00,
2013-09-14 10:51:00,51.3,44.0,30.11,NW,307,5.0,7.0,75,0.00,,,0.00,weatherlink.com 1.10,2013-09-14 14:51:00,
2013-09-14 11:06:00,52.5,45.0,30.11,WNW,296,6.0,7.0,75,0.00,,,0.00,weatherlink.com 1.10,2013-09-14 15:06:00,
2013-09-14 11:21:00,53.1,45.0,30.11,NW,319,6.0,9.0,75,0.00,,,0.00,weatherlink.com 1.10,2013-09-14 15:21:00,
2013-09-14 11:36:00,54.0,45.0,30.11,NW,325,4.0,8.0,72,0.00,,,0.00,weatherlink.com 1.10,2013-09-14 15:36:00,
2013-09-14 11:51:00,55.1,46.0,30.11,South,171,0.0,7.0,71,0.00,,,0.00,weatherlink.com 1.10,2013-09-14 15:51:00,
2013-09-14 12:06:00,54.3,44.0,30.11,SW,232,3.0,8.0,69,0.00,,,0.00,weatherlink.com 1.10,2013-09-14 16:06:00,
2013-09-14 12:21:00,54.7,44.0,30.11,WSW,257,5.0,11.0,67,0.00,,,0.00,weatherlink.com 1.10,2013-09-14 16:21:00,
2013-09-14 12:36:00,54.6,44.0,30.11,West,273,4.0,8.0,67,0.00,,,0.00,weatherlink.com 1.10,2013-09-14 16:36:00,
2013-09-14 12:51:00,55.5,43.0,30.11,NW,318,5.0,9.0,63,0.00,,,0.00,weatherlink.com 1.10,2013-09-14 16:51:00,
2013-09-14 13:06:00,56.7,47.0,30.10,WSW,256,2.0,9.0,70,0.00,,,0.00,weatherlink.com 1.10,2013-09-14 17:06:00,
2013-09-14 13:21:00,57.5,44.0,30.10,NW,324,6.0,10.0,62,0.00,,,0.00,weatherlink.com 1.10,2013-09-14 17:21:00,
2013-09-14 13:36:00,57.7,45.0,30.10,SW,219,4.0,9.0,62,0.00,,,0.00,weatherlink.com 1.10,2013-09-14 17:36:00,
2013-09-14 13:51:00,57.5,44.0,30.10,NW,321,3.0,9.0,60,0.00,,,0.00,weatherlink.com 1.10,2013-09-14 17:51:00,
2013-09-14 14:06:00,56.6,45.0,30.09,NW,311,4.0,8.0,65,0.00,,,0.00,weatherlink.com 1.10,2013-09-14 18:06:00,
2013-09-14 14:21:00,57.4,44.0,30.09,WNW,291,0.0,8.0,61,0.00,,,0.00,weatherlink.com 1.10,2013-09-14 18:21:00,
2013-09-14 14:36:00,59.0,45.0,30.08,NW,310,4.0,8.0,60,0.00,,,0.00,weatherlink.com 1.10,2013-09-14 18:36:00,
2013-09-14 14:51:00,60.1,45.0,30.08,West,264,3.0,9.0,58,0.00,,,0.00,weatherlink.com 1.10,2013-09-14 18:51:00,
2013-09-14 15:06:00,59.6,45.0,30.08,NNW,333,2.0,7.0,59,0.00,,,0.00,weatherlink.com 1.10,2013-09-14 19:06:00,
2013-09-14 15:21:00,60.0,45.0,30.07,NW,309,1.0,6.0,58,0.00,,,0.00,weatherlink.com 1.10,2013-09-14 19:21:00,
2013-09-14 15:36:00,61.8,45.0,30.07,West,269,6.0,8.0,55,0.00,,,0.00,weatherlink.com 1.10,2013-09-14 19:36:00,
2013-09-14 15:52:00,60.6,46.0,30.07,West,259,4.0,12.0,58,0.00,,,0.00,weatherlink.com 1.10,2013-09-14 19:52:00,
2013-09-14 16:07:00,60.5,45.0,30.07,WSW,244,2.0,11.0,56,0.00,,,0.00,weatherlink.com 1.10,2013-09-14 20:07:00,
2013-09-14 16:36:00,61.8,45.0,30.07,WNW,286,3.0,7.0,54,0.00,,,0.00,weatherlink.com 1.10,2013-09-14 20:36:00,
2013-09-14 16:51:00,61.6,44.0,30.07,NW,307,4.0,9.0,53,0.00,,,0.00,weatherlink.com 1.10,2013-09-14 20:51:00,
2013-09-14 17:06:00,61.8,44.0,30.07,WNW,298,6.0,9.0,52,0.00,,,0.00,weatherlink.com 1.10,2013-09-14 21:06:00,
2013-09-14 17:22:00,61.9,43.0,30.08,WNW,300,3.0,9.0,51,0.00,,,0.00,weatherlink.com 1.10,2013-09-14 21:22:00,
2013-09-14 17:37:00,62.1,44.0,30.08,NW,309,5.0,7.0,51,0.00,,,0.00,weatherlink.com 1.10,2013-09-14 21:37:00,
2013-09-14 17:52:00,61.4,42.0,30.09,NW,320,1.0,7.0,50,0.00,,,0.00,weatherlink.com 1.10,2013-09-14 21:52:00,
2013-09-14 18:07:00,60.8,43.0,30.09,NNW,329,3.0,9.0,53,0.00,,,0.00,weatherlink.com 1.10,2013-09-14 22:07:00,
2013-09-14 18:23:00,59.8,43.0,30.08,NW,315,2.0,6.0,55,0.00,,,0.00,weatherlink.com 1.10,2013-09-14 22:23:00,
2013-09-14 18:37:00,59.3,40.0,30.09,WNW,294,1.0,6.0,49,0.00,,,0.00,weatherlink.com 1.10,2013-09-14 22:37:00,
2013-09-14 18:52:00,57.8,42.0,30.09,WNW,293,0.0,3.0,55,0.00,,,0.00,weatherlink.com 1.10,2013-09-14 22:52:00,
2013-09-14 19:07:00,56.4,43.0,30.09,WNW,293,0.0,1.0,61,0.00,,,0.00,weatherlink.com 1.10,2013-09-14 23:07:00,
2013-09-14 19:22:00,54.5,44.0,30.09,WNW,293,0.0,1.0,68,0.00,,,0.00,weatherlink.com 1.10,2013-09-14 23:22:00,
2013-09-14 19:37:00,53.1,44.0,30.09,WNW,293,0.0,0.0,70,0.00,,,0.00,weatherlink.com 1.10,2013-09-14 23:37:00,
2013-09-14 19:52:00,51.9,43.0,30.09,WNW,293,0.0,0.0,72,0.00,,,0.00,weatherlink.com 1.10,2013-09-14 23:52:00,
2013-09-14 20:07:00,50.9,44.0,30.09,WNW,293,0.0,0.0,76,0.00,,,0.00,weatherlink.com 1.10,2013-09-15 00:07:00,
2013-09-14 20:10:00,50.8,43.2,30.10,WNW,293,0.0,5.0,75,0.00,,,0.00,Wunderground v.1.15,2013-09-15 00:10:00,
2013-09-14 20:22:00,50.3,44.0,30.10,WNW,293,2.0,2.0,78,0.00,,,0.00,weatherlink.com 1.10,2013-09-15 00:22:00,
2013-09-14 20:37:00,49.5,44.0,30.11,WNW,293,0.0,1.0,80,0.00,,,0.00,weatherlink.com 1.10,2013-09-15 00:37:00,
2013-09-14 20:52:00,49.1,44.0,30.11,WNW,293,0.0,0.0,81,0.00,,,0.00,weatherlink.com 1.10,2013-09-15 00:52:00,
2013-09-14 21:07:00,48.8,44.0,30.12,WNW,293,0.0,0.0,82,0.00,,,0.00,weatherlink.com 1.10,2013-09-15 01:07:00,
2013-09-14 21:22:00,48.4,44.0,30.12,WNW,293,0.0,0.0,83,0.00,,,0.00,weatherlink.com 1.10,2013-09-15 01:22:00,
2013-09-14 21:37:00,48.1,44.0,30.12,WNW,293,0.0,1.0,85,0.00,,,0.00,weatherlink.com 1.10,2013-09-15 01:37:00,
2013-09-14 21:52:00,48.1,44.0,30.12,WNW,293,0.0,1.0,86,0.00,,,0.00,weatherlink.com 1.10,2013-09-15 01:52:00,
2013-09-14 22:07:00,47.9,44.0,30.12,WNW,293,0.0,0.0,86,0.00,,,0.00,weatherlink.com 1.10,2013-09-15 02:07:00,
2013-09-14 22:22:00,47.9,44.0,30.12,WNW,293,0.0,2.0,86,0.00,,,0.00,weatherlink.com 1.10,2013-09-15 02:22:00,
2013-09-14 22:37:00,48.0,44.0,30.11,South,186,0.0,4.0,85,0.00,,,0.00,weatherlink.com 1.10,2013-09-15 02:37:00,
2013-09-14 22:52:00,47.9,44.0,30.12,SW,215,0.0,3.0,86,0.00,,,0.00,weatherlink.com 1.10,2013-09-15 02:52:00,
2013-09-14 23:07:00,47.9,44.0,30.12,SW,221,2.0,4.0,85,0.00,,,0.00,weatherlink.com 1.10,2013-09-15 03:07:00,
2013-09-14 23:22:00,48.0,43.0,30.12,SW,225,2.0,5.0,84,0.00,,,0.00,weatherlink.com 1.10,2013-09-15 03:22:00,
2013-09-14 23:37:00,48.1,44.0,30.11,SW,227,1.0,3.0,84,0.00,,,0.00,weatherlink.com 1.10,2013-09-15 03:37:00,
2013-09-14 23:52:00,48.1,44.0,30.11,SSW,197,1.0,4.0,84,0.00,,,0.00,weatherlink.com 1.10,2013-09-15 03:52:00,